Other Surface Observations
Issued by NWS

Current Version | Previous Version | Text Only | Print | Product List | Glossary On
Versions: 1 2 3 4 5 6 7 8 9 10 11 12 13 14 15 16 17 18 19 20 21 22 23 24 25 26 27 28 29 30 31 32 33 34 35 36 37 38 39 40 41 42 43 44 45 46 47 48 49 50
000
SXUS52 KTAE 190916
OSOTAE
OSOTAE
North Florida/South Alabama/Southwest Georgia Weather Roundup
National Weather Service Tallahassee Florida
400 AM EST SUN JAN 19 2020

Note: "fair" indicates few or no clouds below 12,000 feet with no
significant weather and/or obstructions to visibility.

!FLZ017-115-028-034-025-191000
...North Florida...

CITY           SKY/WX    TMP DP  RH WIND       PRES   REMARKS
TALL INTL ARPT MOCLDY    64  62  93 S9        30.07F
FSU LOVE BLDG    N/A     64  63  94 SW5         N/A
APALACHICOLA   FAIR      65  63  93 S7        30.09S
PERRY          DRIZZLE   62  61  97 CALM      30.09F
CROSS CITY     FAIR      63  60  89 S8        30.10F
JACKSONVILLE   MOCLDY    66  58  75 S14       30.08F
$$

!FLZ112-006-005-002-011-191000
...Florida Panhandle...

CITY           SKY/WX    TMP DP  RH WIND       PRES   REMARKS
MARIANNA       CLOUDY    63  62  97 SW7       30.06F
BONIFAY        CLOUDY    63  62  97 CALM      30.07  FOG
PANAMA CITY NW CLOUDY    63  61  93 SE3       30.07R FOG
TYNDALL AFB    NOT AVBL
TYND DRONE APT NOT AVBL
DE FUNIAK SPR  FAIR      64  64  98 SW3       30.09S
EGLIN AFB      FAIR      65  65 100 SW3       30.07
DESTIN         LGT RAIN  68  66  93 NW3       30.07
HURLBURT       LGT RAIN  68  66  94 NW6       30.06
CRESTVIEW      LGT RAIN  65  63  93 W8        30.09F
PENSACOLA      LGT RAIN  63  61  93 N12       30.08S
$$

!ALZ063-066-191000
...South Alabama...

CITY           SKY/WX    TMP DP  RH WIND       PRES   REMARKS
DOTHAN         LGT RAIN  64  63  96 SW8       30.09F
OZARK CAIRNS   DRIZZLE   64  64 100 W7        30.06
FT RUCKER HELI LGT RAIN  64  64 100 W6        30.06S
RUCKER HELI 3  LGT RAIN N/A N/A N/A NW7       30.06S
RUCKER HELI 2  LGT RAIN  64  63  97 W3        30.04
FLORALA APT    LGT RAIN  65  62  90 SW3       30.09S
ANDALUSIA      LGT RAIN  65  60  84 NW14      30.10
TROY           LGT RAIN  59  57  93 N8        30.10
EUFALA         NOT AVBL
MOBILE         FAIR      58  55  90 N12       30.14R
$$

!GAZ120>161-191000
...Southwest and South Central Georgia...

CITY           SKY/WX    TMP DP  RH WIND       PRES   REMARKS
THOMASVILLE    FAIR      63  61  94 SW6       30.07F
BAINBRIDGE     CLOUDY    64  62  96 SW7       30.07S
MOODY AFB      FAIR      65  58  77 SW8       30.05
VALDOSTA       FAIR      65  57  75 SW5       30.07F
MOULTRIE       FAIR      64  59  82 SW8       30.07F
BLAKELY        RAIN      59  57  94 SW7       30.06F
ALBANY         CLOUDY    65  63  93 SW8       30.07S
TIFTON         MOCLDY    66  60  80 SW9       30.04
FITZGERALD     CLOUDY    65  61  86 SW5       30.07S
CORDELE        CLOUDY    63  60  90 W6        30.06S
AMERICUS       CLOUDY    64  63  94 SW7       30.06S
HOMERVILLE     FAIR      61  55  82 S3        30.06F
$$

!GMZ750-755-770-775-191000
...Coastal and Buoy Obs...

STATION/POSITION TIME  TEMP    WIND        PRES    VSBY  WAVE
                       AIR SEA DIR/SP/G                  HT/PER
                 (UTC) (F)     (DEG/KT/KT) (MB)    (MI)  (FT/S)
KEATON BEACH     0900   65     180/ 17/ 21 1019.1F
CEDAR KEY        0900   67     200/ 13/ 14 1019.8R
C TOWER          0900   66     180/ 15/ 16 1018.7F
APALACHICOLA BUO 0900   70     180/ 19/ 23 1020.3
PANAMA CITY BUOY 0900      73  160/ 10/ 12 1019.2
MOBILE BUOY      0900   71 71  280/ 12/ 14 1019.5
ORANGE BCH AL BU 0900   66 65   80/ 12/ 16 1018.9
$$



USA.gov is the U.S. government's official web portal to all federal, state and local government web resources and services.